Location: Newark
(48.6461°N, 4.3644°W)
Time: 00:04:30
(UTC+00:00)

STARLINK 1052 - Pass Details

Date: 10 December 2019
Orbit: 447 x 449 km, 53.0° (Epoch: 19 January)

Event Time Altitude Azimuth Distance (km) Brightness Sun altitude
Exits shadow 04:50:25 12° 124° (ESE) 1,382 6.3 -29.9°
Drops below altitude 10° 04:50:41 10° 123° (ESE) 1,497 6.5 -29.9°
Enters shadow 05:48:35 -65° 315° (NW) 12,053 10.4 -20.4°
